EW0890 Weather Reports


time (UTC)temp
C
wind
direction
speed
KPH
gust
KPH
rain 1hr
cm
rain 24hr
cm
rain mn
cm
humidity
%
barometer
mb
20260905025507 25 284 0.0 0.0 0.00 0.00 0.00 92 1013.8
20260905025007 25 284 0.0 0.0 0.00 0.00 0.00 92 1013.8
20260905024558 25 0 0.0 0.0 0.00 0.00 0.00 92 1013.9
20260905024515 25 284 0.0 0.0 0.00 0.00 0.00 92 1013.8
20260905024007 25 284 0.0 0.0 0.00 0.00 0.00 92 1013.9
20260905023507 25 284 0.0 0.0 0.00 0.00 0.00 92 1013.9
20260905023126 25 0 0.0 0.0 0.00 0.00 0.00 92 1014.0
20260905023019 25 284 0.0 0.0 0.00 0.00 0.00 92 1013.9
20260905022511 25 283 0.0 0.0 0.00 0.00 0.00 91 1013.8
20260905022010 25 284 0.0 0.0 0.00 0.00 0.00 92 1013.8
20260905021602 25 0 0.0 0.0 0.00 0.00 0.00 92 1014.0
20260905021508 25 284 0.0 0.0 0.00 0.00 0.00 92 1013.8
20260905021003 25 283 0.0 0.0 0.00 0.00 0.00 91 1013.7
20260905020506 26 284 0.0 0.0 0.00 0.00 0.00 91 1013.6
20260905020100 26 0 0.0 0.0 0.00 0.00 0.00 91 1013.6
20260905020014 26 284 0.0 0.0 0.00 0.00 0.00 91 1013.5
20260905015507 26 283 0.0 0.0 0.00 0.00 0.00 92 1013.6
20260905015008 26 283 0.0 0.0 0.00 0.00 0.00 91 1013.5
20260905014559 26 0 0.0 0.0 0.00 0.00 0.00 90 1013.7
20260905014516 26 284 0.0 0.0 0.00 0.00 0.00 90 1013.5
20260905014011 26 284 0.0 0.0 0.00 0.00 0.00 90 1013.3
20260905013507 26 283 0.0 0.0 0.00 0.00 0.00 90 1013.2
20260905013100 26 0 0.0 0.0 0.00 0.00 0.00 90 1013.3
20260905013017 26 284 0.0 0.0 0.00 0.00 0.00 90 1013.2
20260905012508 26 283 0.0 0.0 0.00 0.00 0.00 89 1013.3
20260905012008 26 284 0.0 0.0 0.00 0.00 0.00 89 1013.2
20260905011604 26 0 0.0 0.0 0.00 0.00 0.00 89 1013.3
20260905011517 26 283 0.0 0.0 0.00 0.00 0.00 89 1013.2
20260905011008 27 283 0.0 0.0 0.00 0.00 0.00 88 1013.1
20260905010507 27 284 0.0 0.0 0.00 0.00 0.00 88 1013.1
20260905010112 27 0 0.0 0.0 0.00 0.00 0.00 87 1013.1
20260905010009 27 284 0.0 0.0 0.00 0.00 0.00 87 1013.1
20260905005505 27 284 0.0 0.0 0.00 0.00 0.00 87 1013.1
20260905005008 27 284 0.0 0.0 0.00 0.00 0.00 86 1012.9
20260905004627 28 0 0.0 0.0 0.00 0.00 0.00 85 1013.0
20260905004516 28 284 0.0 0.0 0.00 0.00 0.00 85 1012.9
20260905004007 28 283 0.0 0.0 0.00 0.00 0.00 84 1012.9
20260905003509 28 284 0.0 1.6 0.00 0.00 0.00 84 1012.9
20260905003122 29 0 0.0 1.6 0.00 0.00 0.00 83 1013.0
20260905003028 29 283 0.0 1.6 0.00 0.00 0.00 83 1012.9
20260905002505 30 283 0.0 0.0 0.00 0.00 0.00 81 1012.9
20260905002008 30 284 0.0 0.0 0.00 0.00 0.00 79 1013.0
20260905001603 31 0 0.0 0.0 0.00 0.00 0.00 78 1013.1
20260905001516 31 284 0.0 0.0 0.00 0.00 0.00 77 1012.9
20260905001007 32 283 0.0 0.0 0.00 0.00 0.00 74 1012.9
20260905000509 32 284 0.0 0.0 0.00 0.00 0.00 71 1012.8
20260905000137 33 0 0.0 0.0 0.00 0.00 0.00 70 1013.0
20260905000031 33 284 0.0 0.0 0.00 0.00 0.00 70 1012.8
20260904235507 33 284 0.0 0.0 0.00 0.00 0.00 70 1012.9
20260904235004 33 284 0.0 0.0 0.00 0.00 0.00 69 1012.9
20260904234602 33 0 0.0 1.6 0.00 0.00 0.00 69 1013.0
20260904234511 33 284 0.0 1.6 0.00 0.00 0.00 69 1012.7
20260904234007 32 284 0.0 3.2 0.00 0.00 0.00 68 1012.9
20260904233507 32 284 1.6 3.2 0.00 0.00 0.00 65 1013.0
20260904233101 32 280 1.6 3.2 0.00 0.00 0.00 65 1013.1
20260904233020 32 280 1.6 3.2 0.00 0.00 0.00 64 1013.0
20260904232510 33 290 1.6 4.8 0.00 0.00 0.00 64 1013.0
20260904232009 33 286 1.6 4.8 0.00 0.00 0.00 64 1013.1
20260904231602 33 284 1.6 6.4 0.00 0.00 0.00 67 1013.3
20260904231525 33 284 0.0 4.8 0.00 0.00 0.00 67 1013.2
20260904231008 33 283 1.6 6.4 0.00 0.00 0.00 67 1013.1
20260904230508 33 283 4.8 6.4 0.00 0.00 0.00 66 1013.1
20260904230117 33 278 3.2 4.8 0.00 0.00 0.00 66 1013.3
20260904230045 33 284 3.2 4.8 0.00 0.00 0.00 66 1013.2
20260904225508 33 284 1.6 3.2 0.00 0.00 0.00 65 1013.1
20260904225010 33 247 0.0 3.2 0.00 0.00 0.00 66 1013.1
20260904224602 33 273 0.0 6.4 0.00 0.00 0.00 66 1013.1
20260904224519 33 267 0.0 6.4 0.00 0.00 0.00 66 1013.0
20260904224010 33 279 1.6 6.4 0.00 0.00 0.00 65 1013.0
20260904223504 33 285 1.6 4.8 0.00 0.00 0.00 64 1013.0
20260904223102 33 276 0.0 6.4 0.00 0.00 0.00 65 1013.0
20260904223014 33 271 1.6 6.4 0.00 0.00 0.00 63 1013.0
20260904222507 34 277 1.6 6.4 0.00 0.00 0.00 62 1012.9
20260904222008 34 278 0.0 6.4 0.00 0.00 0.00 64 1012.8
20260904221608 33 274 1.6 6.4 0.00 0.00 0.00 64 1012.9
20260904221521 33 283 1.6 6.4 0.00 0.00 0.00 65 1012.7
20260904221011 33 273 1.6 6.4 0.00 0.00 0.00 64 1012.8
20260904220508 33 286 3.2 8.0 0.00 0.00 0.00 64 1012.7
20260904220105 33 289 3.2 8.0 0.00 0.00 0.00 63 1012.9
20260904220026 33 273 4.8 8.0 0.00 0.00 0.00 63 1012.7
20260904215510 34 276 3.2 8.0 0.00 0.00 0.00 60 1012.8
20260904215010 34 242 1.6 4.8 0.00 0.00 0.00 63 1012.8
20260904214608 34 299 1.6 4.8 0.00 0.00 0.00 62 1012.9
20260904214523 34 290 1.6 4.8 0.00 0.00 0.00 63 1012.9
20260904214009 34 234 0.0 4.8 0.00 0.00 0.00 63 1012.9
20260904213512 34 280 1.6 4.8 0.00 0.00 0.00 63 1013.0
20260904213103 34 301 1.6 6.4 0.00 0.00 0.00 63 1013.0
20260904213023 34 260 1.6 6.4 0.00 0.00 0.00 64 1012.9
20260904212509 34 269 1.6 6.4 0.00 0.00 0.00 67 1012.9
20260904212008 33 269 1.6 4.8 0.00 0.00 0.00 65 1013.0
20260904211605 33 252 1.6 6.4 0.00 0.00 0.00 66 1013.3
20260904211516 33 260 0.0 4.8 0.00 0.00 0.00 66 1013.2
20260904211009 33 282 1.6 6.4 0.00 0.00 0.00 67 1013.2
20260904210510 33 284 3.2 6.4 0.00 0.00 0.00 64 1013.3
20260904210104 33 278 4.8 8.0 0.00 0.00 0.00 62 1013.5
20260904210026 33 284 4.8 8.0 0.00 0.00 0.00 64 1013.3
20260904205512 34 273 3.2 8.0 0.00 0.00 0.00 64 1013.4
20260904205012 33 259 1.6 8.0 0.00 0.00 0.00 65 1013.4
20260904204603 33 199 4.8 8.0 0.00 0.00 0.00 63 1013.5
20260904204525 33 245 4.8 8.0 0.00 0.00 0.00 63 1013.4
20260904204011 33 288 3.2 6.4 0.00 0.00 0.00 64 1013.5
20260904203503 33 274 3.2 6.4 0.00 0.00 0.00 64 1013.5
20260904203100 33 281 3.2 9.7 0.00 0.00 0.00 62 1013.7
20260904203007 33 288 3.2 9.7 0.00 0.00 0.00 62 1013.6
20260904202502 34 285 4.8 9.7 0.00 0.00 0.00 63 1013.7
20260904202006 34 289 1.6 8.0 0.00 0.00 0.00 65 1013.7
20260904201628 34 245 3.2 9.7 0.00 0.00 0.00 63 1013.8
20260904201511 34 262 4.8 9.7 0.00 0.00 0.00 62 1013.7
20260904201007 34 262 4.8 9.7 0.00 0.00 0.00 63 1013.7
20260904200506 34 272 4.8 9.7 0.00 0.00 0.00 62 1013.8
20260904200104 34 139 1.6 6.4 0.00 0.00 0.00 64 1014.0
20260904200039 34 170 1.6 6.4 0.00 0.00 0.00 64 1013.8
20260904195510 34 211 3.2 8.0 0.00 0.00 0.00 64 1013.9
20260904195013 34 291 3.2 9.7 0.00 0.00 0.00 64 1013.9
20260904194601 34 282 4.8 9.7 0.00 0.00 0.00 63 1014.2
20260904194540 34 276 6.4 9.7 0.00 0.00 0.00 63 1014.1
20260904194015 34 253 3.2 6.4 0.00 0.00 0.00 65 1014.1
20260904193510 34 238 1.6 6.4 0.00 0.00 0.00 64 1014.1
20260904193101 34 281 3.2 8.0 0.00 0.00 0.00 63 1014.4
20260904193027 34 285 3.2 8.0 0.00 0.00 0.00 61 1014.1
20260904192515 34 269 1.6 9.7 0.00 0.00 0.00 64 1014.2
20260904192003 34 265 4.8 9.7 0.00 0.00 0.00 63 1014.3
20260904191602 34 271 3.2 6.4 0.00 0.00 0.00 65 1014.4
20260904191516 34 265 1.6 6.4 0.00 0.00 0.00 64 1014.3
20260904191004 34 265 1.6 8.0 0.00 0.00 0.00 65 1014.3
20260904190504 34 257 1.6 8.0 0.00 0.00 0.00 65 1014.3
20260904190105 34 283 1.6 6.4 0.00 0.00 0.00 62 1014.7
20260904190016 34 254 1.6 6.4 0.00 0.00 0.00 64 1014.5
20260904185507 34 268 1.6 8.0 0.00 0.00 0.00 65 1014.7
20260904185007 34 276 4.8 8.0 0.00 0.00 0.00 63 1014.6
20260904184602 34 278 3.2 8.0 0.00 0.00 0.00 63 1014.8
20260904184528 34 281 4.8 8.0 0.00 0.00 0.00 62 1014.6
20260904184011 34 267 1.6 9.7 0.00 0.00 0.00 62 1014.6
20260904183511 33 259 6.4 9.7 0.00 0.00 0.00 62 1014.6
20260904183116 34 295 4.8 9.7 0.00 0.00 0.00 63 1014.7
20260904183030 34 287 4.8 9.7 0.00 0.00 0.00 63 1014.6
20260904182513 34 271 4.8 9.7 0.00 0.00 0.00 62 1014.7
20260904182013 34 237 3.2 9.7 0.00 0.00 0.00 65 1014.7
20260904181556 34 245 3.2 8.0 0.00 0.00 0.00 64 1015.0
20260904181530 34 277 3.2 8.0 0.00 0.00 0.00 64 1014.7
20260904181017 34 234 4.8 8.0 0.00 0.00 0.00 62 1014.8
20260904180505 34 262 3.2 6.4 0.00 0.00 0.00 64 1014.7
20260904180103 34 267 3.2 9.7 0.00 0.00 0.00 65 1015.1
20260904180013 34 248 3.2 6.4 0.00 0.00 0.00 64 1014.9
20260904175507 33 293 3.2 9.7 0.00 0.00 0.00 66 1014.9
20260904175007 33 283 4.8 9.7 0.00 0.00 0.00 60 1015.0
20260904174605 33 289 4.8 9.7 0.00 0.00 0.00 63 1015.3
20260904174528 33 255 3.2 9.7 0.00 0.00 0.00 63 1015.0
20260904174007 33 291 3.2 11.3 0.00 0.00 0.00 66 1015.0
20260904173509 33 229 3.2 11.3 0.00 0.00 0.00 63 1015.1
20260904173103 33 284 3.2 12.9 0.00 0.00 0.00 66 1015.4
20260904173023 33 279 3.2 12.9 0.00 0.00 0.00 68 1015.1
20260904172510 33 293 6.4 12.9 0.00 0.00 0.00 64 1015.1
20260904172014 33 258 3.2 8.0 0.00 0.00 0.00 67 1015.2
20260904171616 33 262 3.2 8.0 0.00 0.00 0.00 68 1015.5
20260904171527 33 245 3.2 8.0 0.00 0.00 0.00 67 1015.2
20260904171011 33 267 1.6 8.0 0.00 0.00 0.00 67 1015.3
20260904170511 33 276 3.2 8.0 0.00 0.00 0.00 68 1015.3
20260904170105 32 274 1.6 9.7 0.00 0.00 0.00 66 1015.8
20260904170043 32 94 1.6 9.7 0.00 0.00 0.00 68 1015.4
20260904165511 32 293 4.8 9.7 0.00 0.00 0.00 69 1015.5
20260904165003 32 295 4.8 8.0 0.00 0.00 0.00 65 1015.5
20260904164626 32 282 3.2 8.0 0.00 0.00 0.00 67 1015.9
20260904164513 32 276 3.2 8.0 0.00 0.00 0.00 66 1015.5
20260904164006 32 295 3.2 8.0 0.00 0.00 0.00 67 1015.5
20260904163508 32 244 1.6 8.0 0.00 0.00 0.00 69 1015.5
20260904163113 32 283 3.2 9.7 0.00 0.00 0.00 69 1015.8
20260904163018 32 288 3.2 9.7 0.00 0.00 0.00 69 1015.5
20260904162510 32 283 4.8 9.7 0.00 0.00 0.00 68 1015.4
20260904162011 32 262 4.8 12.9 0.00 0.00 0.00 68 1015.5
20260904161605 32 253 4.8 12.9 0.00 0.00 0.00 70 1015.7
20260904161524 32 227 3.2 12.9 0.00 0.00 0.00 70 1015.5
20260904161016 32 311 4.8 8.0 0.00 0.00 0.00 69 1015.5
20260904160513 32 236 3.2 11.3 0.00 0.00 0.00 69 1015.5
20260904160116 31 278 4.8 11.3 0.00 0.00 0.00 70 1015.6
20260904160026 31 280 4.8 11.3 0.00 0.00 0.00 71 1015.5
20260904155515 31 304 3.2 11.3 0.00 0.00 0.00 69 1015.4
20260904155014 31 276 3.2 11.3 0.00 0.00 0.00 69 1015.4
20260904154605 31 282 6.4 9.7 0.00 0.00 0.00 69 1015.6
20260904154531 31 278 6.4 9.7 0.00 0.00 0.00 69 1015.4
20260904154013 31 259 3.2 6.4 0.00 0.00 0.00 71 1015.4
20260904153504 31 284 3.2 8.0 0.00 0.00 0.00 72 1015.3
20260904153114 31 237 3.2 9.7 0.00 0.00 0.00 72 1015.6
20260904153014 31 241 3.2 9.7 0.00 0.00 0.00 71 1015.3
20260904152507 31 268 3.2 9.7 0.00 0.00 0.00 71 1015.3
20260904152009 31 262 3.2 9.7 0.00 0.00 0.00 72 1015.3
20260904151605 30 256 4.8 8.0 0.00 0.00 0.00 72 1015.5
20260904151523 30 274 4.8 8.0 0.00 0.00 0.00 72 1015.2
20260904151012 30 288 4.8 12.9 0.00 0.00 0.00 72 1015.1
20260904150509 30 276 4.8 12.9 0.00 0.00 0.00 72 1015.1
20260904150106 30 261 4.8 11.3 0.00 0.00 0.00 73 1015.4
20260904150034 30 281 4.8 11.3 0.00 0.00 0.00 73 1015.1
20260904145514 30 291 4.8 11.3 0.00 0.00 0.00 74 1015.1
20260904145012 30 285 6.4 11.3 0.00 0.00 0.00 72 1015.1
20260904144603 30 274 6.4 9.7 0.00 0.00 0.00 72 1015.2
20260904144530 30 299 6.4 9.7 0.00 0.00 0.00 72 1015.1
20260904144014 29 221 6.4 11.3 0.00 0.00 0.00 73 1015.1
20260904143516 29 274 4.8 12.9 0.00 0.00 0.00 74 1015.1
20260904143103 29 282 6.4 12.9 0.00 0.00 0.00 74 1015.2
20260904143032 29 288 6.4 12.9 0.00 0.00 0.00 74 1014.9
20260904142515 29 271 6.4 11.3 0.00 0.00 0.00 74 1014.9
20260904142009 28 321 4.8 14.5 0.00 0.00 0.00 75 1014.8
20260904141601 28 294 6.4 14.5 0.00 0.00 0.00 75 1015.0
20260904141517 28 275 6.4 14.5 0.00 0.00 0.00 74 1014.9
20260904141007 28 283 6.4 14.5 0.00 0.00 0.00 75 1014.8
20260904140509 28 268 8.0 11.3 0.00 0.00 0.00 75 1014.9
20260904140103 28 288 4.8 9.7 0.00 0.00 0.00 75 1015.0
20260904140021 28 235 6.4 9.7 0.00 0.00 0.00 75 1014.9
20260904135512 28 241 4.8 9.7 0.00 0.00 0.00 76 1014.9
20260904135012 28 242 4.8 9.7 0.00 0.00 0.00 77 1015.0
20260904134606 28 305 4.8 9.7 0.00 0.00 0.00 77 1014.9
20260904134531 28 309 4.8 9.7 0.00 0.00 0.00 78 1015.0
20260904134016 27 313 4.8 9.7 0.00 0.00 0.00 78 1015.0
20260904133515 27 270 4.8 9.7 0.00 0.00 0.00 78 1015.0
20260904133105 27 281 4.8 9.7 0.00 0.00 0.00 78 1015.0
20260904133033 27 243 3.2 9.7 0.00 0.00 0.00 78 1015.0
20260904132515 27 274 4.8 8.0 0.00 0.00 0.00 78 1015.0
20260904132015 27 275 3.2 8.0 0.00 0.00 0.00 78 1015.1
20260904131618 27 289 4.8 8.0 0.00 0.00 0.00 78 1015.0
20260904131535 27 268 4.8 8.0 0.00 0.00 0.00 78 1015.0
20260904131014 27 296 3.2 8.0 0.00 0.00 0.00 78 1015.0
20260904130507 27 300 3.2 8.0 0.00 0.00 0.00 79 1014.8
20260904130104 27 255 3.2 6.4 0.00 0.00 0.00 79 1014.7
20260904130023 27 302 3.2 6.4 0.00 0.00 0.00 79 1014.7
20260904125508 26 253 3.2 8.0 0.00 0.00 0.00 79 1014.6
20260904125014 26 250 3.2 8.0 0.00 0.00 0.00 79 1014.5
20260904124600 26 302 3.2 8.0 0.00 0.00 0.00 79 1014.5
20260904124526 26 281 3.2 8.0 0.00 0.00 0.00 80 1014.4
20260904124011 26 316 3.2 8.0 0.00 0.00 0.00 81 1014.4
20260904123514 26 275 3.2 4.8 0.00 0.00 0.00 81 1014.3
20260904123105 26 288 3.2 6.4 0.00 0.00 0.00 81 1014.3
20260904123031 26 251 3.2 6.4 0.00 0.00 0.00 81 1014.2
20260904122516 26 277 3.2 6.4 0.00 0.00 0.00 81 1014.1
20260904122015 25 248 3.2 6.4 0.00 0.00 0.00 81 1014.1
20260904121558 25 281 3.2 6.4 0.00 0.00 0.00 82 1014.2
20260904121533 25 268 3.2 6.4 0.00 0.00 0.00 82 1014.0
20260904121017 25 281 3.2 6.4 0.00 0.00 0.00 83 1013.9
20260904120516 25 256 3.2 6.4 0.00 0.00 0.00 84 1013.9
20260904120104 24 284 3.2 6.4 0.00 0.00 0.00 85 1014.1
20260904120035 24 274 3.2 6.4 0.00 0.00 0.00 85 1013.9
20260904115516 24 310 1.6 3.2 0.00 0.00 0.00 87 1013.8
20260904115010 23 299 1.6 4.8 0.00 0.00 0.00 87 1013.8
20260904114605 23 290 1.6 4.8 0.00 0.00 0.00 87 1014.0
20260904114524 23 264 1.6 4.8 0.00 0.00 0.00 87 1013.8
20260904114014 23 285 1.6 4.8 0.00 0.00 0.00 88 1013.8
20260904113503 23 273 1.6 4.8 0.00 0.00 0.00 88 1013.9
20260904113102 23 284 1.6 4.8 0.00 0.00 0.00 88 1014.0
20260904113004 23 307 1.6 4.8 0.00 0.00 0.00 88 1013.9
20260904112503 23 280 1.6 4.8 0.00 0.00 0.00 88 1013.8
20260904112003 23 262 1.6 4.8 0.00 0.00 0.00 88 1013.8
20260904111600 23 274 1.6 4.8 0.00 0.00 0.00 87 1014.0
20260904111508 23 255 1.6 4.8 0.00 0.00 0.00 87 1013.8
20260904111003 23 281 1.6 4.8 0.00 0.00 0.00 87 1013.9
20260904110503 23 301 1.6 4.8 0.00 0.00 0.00 87 1013.9
20260904110014 23 281 1.6 3.2 0.00 0.00 0.00 87 1013.8
20260904105508 23 290 1.6 3.2 0.00 0.00 0.00 87 1013.8
20260904105008 23 262 1.6 3.2 0.00 0.00 0.00 88 1013.9
20260904104602 23 262 1.6 3.2 0.00 0.00 0.00 88 1014.0
20260904104522 23 283 1.6 3.2 0.00 0.00 0.00 88 1013.9
20260904104014 23 278 1.6 3.2 0.00 0.00 0.00 88 1014.0
20260904103512 23 283 0.0 3.2 0.00 0.00 0.00 88 1014.0
20260904103101 23 286 1.6 4.8 0.00 0.00 0.00 88 1014.1
20260904103027 23 275 1.6 3.2 0.00 0.00 0.00 88 1014.0
20260904102513 23 302 1.6 4.8 0.00 0.00 0.00 88 1014.0
20260904102003 23 278 1.6 4.8 0.00 0.00 0.00 88 1014.1
20260904101610 23 252 1.6 3.2 0.00 0.00 0.00 88 1014.2
20260904101510 23 279 1.6 3.2 0.00 0.00 0.00 88 1014.0
20260904101004 23 293 0.0 3.2 0.00 0.00 0.00 88 1014.0
20260904100504 23 295 0.0 3.2 0.00 0.00 0.00 88 1014.0
20260904100107 23 271 0.0 3.2 0.00 0.00 0.00 87 1014.2
20260904100011 23 290 0.0 3.2 0.00 0.00 0.00 87 1014.1
20260904095504 23 278 1.6 3.2 0.00 0.00 0.00 87 1014.0
20260904095003 23 293 1.6 3.2 0.00 0.00 0.00 87 1014.1
20260904094607 23 283 1.6 3.2 0.00 0.00 0.00 87 1014.2
20260904094516 23 273 1.6 3.2 0.00 0.00 0.00 87 1014.0
20260904094007 23 273 1.6 3.2 0.00 0.00 0.00 86 1014.0
20260904093507 23 266 0.0 3.2 0.00 0.00 0.00 86 1014.1
20260904093118 24 278 0.0 1.6 0.00 0.00 0.00 86 1014.1
20260904093049 24 277 0.0 1.6 0.00 0.00 0.00 86 1014.0
20260904092511 24 290 0.0 3.2 0.00 0.00 0.00 86 1013.9
20260904092011 24 291 0.0 3.2 0.00 0.00 0.00 86 1014.0
20260904091615 24 0 0.0 4.8 0.00 0.00 0.00 86 1014.1
20260904091531 24 293 0.0 4.8 0.00 0.00 0.00 86 1014.0
20260904091012 24 305 0.0 4.8 0.00 0.00 0.00 86 1013.9
20260904090503 24 243 0.0 3.2 0.00 0.00 0.00 86 1013.8
20260904090100 24 259 0.0 3.2 0.00 0.00 0.00 85 1013.9
20260904090007 24 269 0.0 3.2 0.00 0.00 0.00 85 1013.7
20260904085504 24 297 0.0 3.2 0.00 0.00 0.00 85 1013.6
20260904085004 24 270 0.0 4.8 0.00 0.00 0.00 85 1013.6
20260904084557 24 251 1.6 4.8 0.00 0.00 0.00 85 1013.8
20260904084512 24 293 1.6 4.8 0.00 0.00 0.00 85 1013.6
20260904084007 24 235 1.6 4.8 0.00 0.00 0.00 85 1013.6
20260904083507 24 280 1.6 4.8 0.00 0.00 0.00 85 1013.6
20260904083107 24 283 1.6 4.8 0.00 0.00 0.00 85 1013.8
20260904083017 24 242 1.6 4.8 0.00 0.00 0.00 85 1013.6
20260904082508 24 332 1.6 4.8 0.00 0.00 0.00 85 1013.5
20260904082008 24 300 1.6 4.8 0.00 0.00 0.00 85 1013.5
20260904081557 24 221 1.6 4.8 0.00 0.00 0.00 85 1013.7
20260904081524 24 260 1.6 4.8 0.00 0.00 0.00 85 1013.5
20260904081012 24 292 1.6 4.8 0.00 0.00 0.00 85 1013.5
20260904080513 24 275 1.6 4.8 0.00 0.00 0.00 86 1013.6
20260904080027 24 238 0.0 1.6 0.00 0.00 0.00 86 1013.6
20260904075514 24 290 0.0 3.2 0.00 0.00 0.00 86 1013.7
20260904075003 24 226 0.0 3.2 0.00 0.00 0.00 86 1013.6
20260904074559 24 274 0.0 3.2 0.00 0.00 0.00 86 1013.8
20260904074509 24 281 0.0 3.2 0.00 0.00 0.00 86 1013.6
20260904074003 23 298 0.0 1.6 0.00 0.00 0.00 87 1013.7
20260904073507 23 287 0.0 0.0 0.00 0.00 0.00 87 1013.7
20260904073117 23 0 0.0 1.6 0.00 0.00 0.00 88 1013.9
20260904073035 23 255 0.0 1.6 0.00 0.00 0.00 88 1013.8
20260904072506 23 253 0.0 1.6 0.00 0.00 0.00 88 1013.9
20260904072010 23 239 0.0 0.0 0.00 0.00 0.00 88 1013.9
20260904071600 23 0 0.0 0.0 0.00 0.00 0.00 88 1014.1
20260904071522 23 274 0.0 0.0 0.00 0.00 0.00 88 1014.0
20260904071011 23 266 0.0 0.0 0.00 0.00 0.00 88 1013.9
20260904070512 23 268 0.0 0.0 0.00 0.00 0.00 88 1014.2
20260904070028 23 272 0.0 0.0 0.00 0.00 0.00 88 1014.0
20260904065514 23 271 0.0 1.6 0.00 0.00 0.00 89 1014.0
20260904065015 23 270 0.0 1.6 0.00 0.00 0.00 89 1014.1
20260904064608 23 0 0.0 1.6 0.00 0.00 0.00 89 1014.3
20260904064529 23 270 0.0 1.6 0.00 0.00 0.00 89 1014.2
20260904064015 23 255 0.0 1.6 0.00 0.00 0.00 89 1014.1
20260904063504 23 263 0.0 1.6 0.00 0.00 0.00 89 1014.1
20260904063107 23 0 0.0 1.6 0.00 0.00 0.00 89 1014.3
20260904063011 23 214 0.0 1.6 0.00 0.00 0.00 89 1014.2
20260904062504 23 245 0.0 1.6 0.00 0.00 0.00 89 1014.1
20260904062004 23 261 0.0 1.6 0.00 0.00 0.00 89 1014.1
20260904061600 23 0 0.0 1.6 0.00 0.00 0.00 89 1014.2
20260904061518 23 234 0.0 1.6 0.00 0.00 0.00 89 1014.1
20260904061008 23 234 0.0 1.6 0.00 0.00 0.00 89 1014.2
20260904060508 23 288 0.0 0.0 0.00 0.00 0.00 90 1014.2
20260904060127 23 0 0.0 0.0 0.00 0.00 0.00 90 1014.3
20260904060028 23 287 0.0 0.0 0.00 0.00 0.00 90 1014.1
20260904055511 23 270 0.0 0.0 0.00 0.00 0.00 90 1014.1
20260904055012 23 259 0.0 0.0 0.00 0.00 0.00 90 1014.2
20260904054636 23 0 0.0 0.0 0.00 0.00 0.00 90 1014.3
20260904054530 23 259 0.0 0.0 0.00 0.00 0.00 90 1014.1
20260904054015 23 257 0.0 0.0 0.00 0.00 0.00 91 1014.2
20260904053515 23 222 0.0 0.0 0.00 0.00 0.00 90 1014.2
20260904053058 23 0 0.0 0.0 0.00 0.00 0.00 90 1014.3
20260904053032 23 222 0.0 0.0 0.00 0.00 0.00 90 1014.1
20260904052516 23 222 0.0 0.0 0.00 0.00 0.00 91 1014.1
20260904052006 23 197 0.0 0.0 0.00 0.00 0.00 91 1014.2
20260904051601 23 0 0.0 0.0 0.00 0.00 0.00 91 1014.4
20260904051515 23 166 0.0 0.0 0.00 0.00 0.00 91 1014.2
20260904051005 23 96 0.0 0.0 0.00 0.00 0.00 91 1014.3
20260904050507 23 94 0.0 0.0 0.00 0.00 0.00 91 1014.2
20260904050107 23 0 0.0 0.0 0.00 0.00 0.00 91 1014.5
20260904050022 23 94 0.0 0.0 0.00 0.00 0.00 91 1014.4
20260904045509 23 96 0.0 0.0 0.00 0.00 0.00 91 1014.3
20260904045009 23 83 0.0 0.0 0.00 0.00 0.00 91 1014.3
20260904044559 23 0 0.0 0.0 0.00 0.00 0.00 90 1014.5
20260904044526 23 89 0.0 0.0 0.00 0.00 0.00 90 1014.4
20260904044014 23 89 0.0 0.0 0.00 0.00 0.00 90 1014.3
20260904043515 23 89 0.0 0.0 0.00 0.00 0.00 90 1014.2
20260904043105 23 0 0.0 0.0 0.00 0.00 0.00 89 1014.5
20260904043030 23 89 0.0 0.0 0.00 0.00 0.00 89 1014.2
20260904042516 24 88 0.0 0.0 0.00 0.00 0.00 89 1014.3
20260904042014 24 89 0.0 0.0 0.00 0.00 0.00 89 1014.2
20260904041604 24 0 0.0 0.0 0.00 0.00 0.00 88 1014.3
20260904041533 24 88 0.0 0.0 0.00 0.00 0.00 88 1014.1
20260904041003 24 105 0.0 1.6 0.00 0.00 0.00 88 1014.1
20260904040506 25 105 0.0 1.6 0.00 0.00 0.00 88 1014.2
20260904040018 25 250 0.0 1.6 0.00 0.00 0.00 87 1014.1
20260904035510 25 245 0.0 0.0 0.00 0.00 0.00 87 1014.1
20260904035008 25 244 0.0 1.6 0.00 0.00 0.00 87 1014.2
20260904034601 25 0 0.0 1.6 0.00 0.00 0.00 87 1014.2
20260904034526 25 244 0.0 1.6 0.00 0.00 0.00 87 1014.2
20260904034012 25 241 0.0 0.0 0.00 0.00 0.00 87 1014.1
20260904033511 25 241 0.0 1.6 0.00 0.00 0.00 88 1014.0
20260904033102 25 0 0.0 1.6 0.00 0.00 0.00 88 1014.1
20260904033036 25 241 0.0 1.6 0.00 0.00 0.00 88 1014.1
20260904032513 25 240 0.0 0.0 0.00 0.00 0.00 88 1013.9
20260904032014 25 240 0.0 0.0 0.00 0.00 0.00 88 1013.8
20260904031606 25 0 0.0 0.0 0.00 0.00 0.00 87 1014.1
20260904031533 25 240 0.0 0.0 0.00 0.00 0.00 87 1013.9
20260904031016 25 240 0.0 0.0 0.00 0.00 0.00 87 1014.0
20260904030520 25 240 0.0 0.0 0.00 0.00 0.00 87 1013.9
20260904030055 25 0 0.0 0.0 0.00 0.00 0.00 87 1014.0
20260904030034 25 240 0.0 0.0 0.00 0.00 0.00 87 1013.8